Home > Time Zones > World Clock > Weather > Peru > Ica > Past weeks

Flag Weather past 2 weeks in Ica, Ica, Peru

Now
59 °F

Passing clouds.


Feels Like: 59 °F
Forecast: 60 / 87 °F
Wind: No wind

Location: Pisco Airport

Current Time: Nov 26, 2014 at 4:30:31 AM

Latest Report: Nov 26, 2014 at 4:00 AM


Visibility: N/A

Pressure: 29.89 "Hg

Humidity: 88%

Dew point: 55 °F

Location of IcaLocation

Historic Weather in Ica — Graph

°F

Ica temperature yesterday

Maximum temperature yesterday: 75 °F (at 2:00 PM)
Minimum temperature yesterday: 64 °F (at 12:00 AM)
Average temperature yesterday: 68 °F

Past Weeks' High & Low Weather Summary

 TemperatureHumidityPressure
High75 °F (Nov 20, 2:00 PM)94% (Nov 13, 6:00 AM)30.18 "Hg (Nov 13, 6:00 AM)
Low57 °F (Nov 23, 6:00 AM)57% (Nov 25, 2:00 PM)29.86 "Hg (Nov 16, 3:00 PM)
Average67 °F82%29.94 "Hg
* Reported Nov 11 3:00 AM — Nov 26 3:00 AM, Ica, Weather by CustomWeather, © 2014

Note: Actual official high and low records may vary slightly from our data, if they occured in-between our weather recording intervals... More about our weather records

Advertising

Ica weather history for previous 24 hours

 ConditionsComfort  
Time TempWeatherWind HumidityBarometerVisibility
3:00 AM
Nov 26
61 °FPassing clouds.5 mph88%29.89 "HgN/A
2:00 AM61 °FPassing clouds.2 mph94%29.89 "HgN/A
1:00 AM64 °FPassing clouds.5 mph88%29.92 "HgN/A
12:00 AM64 °FPassing clouds.10 mph88%29.92 "HgN/A
11:00 PM
Nov 25
64 °FPassing clouds.13 mph88%29.95 "HgN/A
10:00 PM64 °FPassing clouds.14 mph88%29.95 "HgN/A
9:00 PM64 °FPassing clouds.15 mph88%29.95 "HgN/A
8:00 PM66 °FPassing clouds.16 mph88%29.95 "HgN/A
7:00 PM66 °FPassing clouds.16 mph88%29.92 "HgN/A
6:00 PM68 °FPassing clouds.18 mph83%29.92 "HgN/A
5:00 PM72 °FPassing clouds.15 mph69%29.89 "HgN/A
4:00 PM72 °FPassing clouds.21 mph65%29.89 "HgN/A
3:00 PM73 °FPassing clouds.21 mph61%29.89 "HgN/A
2:00 PM75 °FScattered clouds.15 mph57%29.92 "HgN/A
1:00 PM72 °FScattered clouds.9 mph69%29.95 "HgN/A
12:00 PM72 °FPartly sunny.7 mph69%29.98 "HgN/A
11:00 AM72 °FOvercast.6 mph65%29.98 "HgN/A
10:00 AM70 °FOvercast.5 mph73%30.01 "HgN/A
9:00 AM70 °FOvercast.3 mph73%30.01 "HgN/A
8:00 AM68 °FOvercast.8 mph73%30.01 "HgN/A
7:00 AM66 °FMore clouds than sun.7 mph83%29.98 "HgN/A
6:00 AM66 °FOvercast.6 mph83%29.95 "HgN/A
5:00 AM64 °FOvercast.3 mph88%29.92 "HgN/A
4:00 AM64 °FOvercast.5 mph88%29.92 "HgN/A
Weather by CustomWeather, © 2014

See weather overviewHow to use our weather pages